Pagrindinis puslapis
METAR-TAF:

METAR-TAF

Oro uostai :

Mora–Siljan

Mora, Švedija

platuma: 60-57-31N, ilguma: 14-30-40E, Aukštis: 193 m

Dabartinis oras

Ataskaita buvo paskelbta 27 minutes, ne 10:50 UTC
Vėjas 3 kt nuo kintamojo kryptimis
Temperatūra 22°C
Drėgmė 94%
Slėgis 1018 hPa
Matomumas 10 km arba daugiau

METAR: ESKM 301050Z AUTO VRB03KT 9999 FEW011/// BKN014/// BKN022/// 22/21 Q1018

Laikas: 13:17 (11:17 UTC)


TAF: trūkstamas

Orai ataskaitas ir orų prognozės (METAR, TAF).

turimą stotys yra geltonos ir raudonos taškus žemėlapyje.

Perkelti pele per norėdami pamatyti stoties vardą.

Tada spustelėkite, norėdami matyti oro stebėjimo ir prognozės.

Norėdami pakeisti žemėlapį: spustelėkite ant žalios mygtukų su juodo kryžiaus žemyn,; žalią mygtuką su brūkšneliu, jei norite nutolinti; arba žalių rodyklių gretimoms žemėlapius.


METAR-TAF: